Weather Roundup
Issued by NWS Springfield, MO

Home | Current Version | Previous Version | Text Only | Print | Product List | Glossary On
Versions: 1 2 3 4 5 6 7 8 9 10 11 12 13 14 15 16 17 18 19 20 21 22 23 24 25 26 27 28 29 30 31 32 33 34 35 36 37 38 39 40 41 42 43 44 45 46 47 48 49 50
000
NZUS99 KSGF 100007
HRRSGF

HOURLY WEATHER
NATIONAL WEATHER SERVICE SPRINGFIELD MO
600 PM CST FRI DEC 09 2016

......SGF CWA......

CITY           SKY/WX    TMP DP  RH WIND       PRES   REMARKS
SPRINGFIELD    CLOUDY    31  11  43 SE3       30.49S
6HR MIN TEMP:  29; 6HR MAX TEMP:  33;

JOPLIN         CLOUDY    31  14  49 CALM      30.51S
6HR MIN TEMP:  28; 6HR MAX TEMP:  32;

WEST PLAINS    CLEAR     25  13  60 CALM      30.51F
6HR MIN TEMP:  24; 6HR MAX TEMP:  34;

ROLLA          CLEAR     21   9  59 CALM      30.52R
6HR MIN TEMP:  21; 6HR MAX TEMP:  30;

OSAGE BEACH    CLEAR     26   9  48 N3        30.55R
BRANSON        CLOUDY    28  14  54 SE5       30.51S WCI  23

......SURROUNDING SGF CWA......

CITY           SKY/WX    TMP DP  RH WIND       PRES   REMARKS
CHANUTE        CLOUDY    29  13  51 SE7       30.50S WCI  22
PARSONS        CLOUDY    30  14  51 SE5       30.52S WCI  25
COFFEYVILLE    CLOUDY    30  15  53 SE3       30.53R
EMPORIA        CLOUDY    27  12  53 S10       30.47S WCI  17
GROVE OK       CLOUDY    34  21  60 CALM      30.53R
ROGERS AR      CLOUDY    32  15  49 NE3       30.49S
SILOAM SPRINGS CLOUDY    34  12  40 S6        30.49R WCI  29
HARRISON AR    CLOUDY    29  14  53 E5        30.50S WCI  24
NEAR YELLVILLE CLOUDY    32  10  40 CALM      30.51F

......KANSAS AND MISSOURI......

CITY           SKY/WX    TMP DP  RH WIND       PRES   REMARKS
KANSAS CTY INT CLOUDY    27  10  49 S6        30.52S WCI  20
DOWNTOWN KC    CLOUDY    28  11  48 S6        30.55R WCI  22
COLUMBIA       CLOUDY    24  10  55 N5        30.55F WCI  18
SEDALIA        CLOUDY    27   9  46 NE3       30.57R
ST JOSEPH      CLOUDY    26  11  52 SE6       30.53F WCI  19
ST LOUIS       PTCLDY    26  12  55 CALM      30.57F
SPIRIT OF STL  CLEAR     23  13  65 CALM      30.58S
KIRKSVILLE     CLOUDY    25  11  55 CALM      30.55S
WICHITA        CLOUDY    28  13  53 S6        30.46R WCI  22
TOPEKA         CLOUDY    28  14  55 E7        30.52S WCI  21
OLATHE         CLOUDY    25  11  55 E5        30.53R WCI  19

......TENNESSEE......

CITY           SKY/WX    TMP DP  RH WIND       PRES   REMARKS
MEMPHIS        PTCLDY    31  19  61 N7        30.57S WCI  24
NASHVILLE      CLEAR     30  15  53 N8        30.55S WCI  22

......ARKANSAS.......

CITY           SKY/WX    TMP DP  RH WIND       PRES   REMARKS
FAYETTEVILLE   CLOUDY    33  14  45 S5        30.49R WCI  29
FT SMITH       MOCLDY    34  16  47 NE7       30.53S WCI  28
LITTLE ROCK    CLEAR     31  20  63 SE6       30.58S WCI  25

......OKLAHOMA.......

CITY           SKY/WX    TMP DP  RH WIND       PRES   REMARKS
TULSA          CLOUDY    34  13  41 SE7       30.51R WCI  28
PONCA CITY     CLOUDY    31  12  45 SE7       30.47S WCI  24
MCALESTER      CLOUDY    37  12  35 S5        30.50S WCI  33
OKLAHOMA CITY  CLOUDY    33  13  43 SE12      30.44R WCI  24

......IOWA............

CITY           SKY/WX    TMP DP  RH WIND       PRES   REMARKS
DES MOINES     CLOUDY    23  10  57 SW3       30.54R
QUAD CITIES    CLEAR     20  11  68 NW6       30.55F WCI  12

......ILLINOIS........

CITY           SKY/WX    TMP DP  RH WIND       PRES   REMARKS
QUINCY         CLOUDY    22  14  71 NW3       30.55F
CHICAGO        MOCLDY    21  12  68 W10       30.51R WCI  10



USA.gov is the U.S. government's official web portal to all federal, state and local government web resources and services.